Location: Bastelaar
(51.0950°N, 3.8602°E)
Time: 16:39:49
(UTC+00:00)

CZ-2D R/B - Pass Details

Date: 18 November 2025
Orbit: 525 x 597 km, 98.0° (Epoch: 12 December)

Event Time Altitude Azimuth Distance (km) Brightness Sun altitude
Rises 17:45:30 0° 162° (SSE) 2,795 6.8 -17.4°
Reaches altitude 10° 17:47:38 10° 162° (SSE) 1,909 6.0 -17.7°
Maximum altitude 17:51:47 84° 75° (ENE) 604 3.3 -18.4°
Drops below altitude 10° 17:56:02 10° 347° (NNW) 1,949 6.2 -19.0°
Sets 17:58:13 0° 347° (NNW) 2,859 7.1 -19.4°
